Location: Amsterdam
(30.7274°N, 84.4357°W)
Time: 07:51:10
(UTC+00:00)

Transit 2A Rocket - Pass Details

Date: 18 February 2026
Orbit: 583 x 900 km, 66.7° (Epoch: 8 March)

Event Time Altitude Azimuth Distance (km) Brightness Sun altitude
Rises 21:56:11 0° 235° (SW) 3,451 10.0 17.8°
Reaches altitude 10° 21:59:03 10° 248° (WSW) 2,543 10.4 17.3°
Maximum altitude 22:03:58 26° 304° (WNW) 1,676 7.4 16.3°
Drops below altitude 10° 22:08:57 10° 360° (N) 2,571 7.5 15.3°
Sets 22:11:53 0° 12° (NNE) 3,497 8.1 14.7°
